カタログに戻る

SL-12 DEB

LostHEO
NORAD 41700·DEBRIS·🇷🇺 Russia

打ち上げ Mar 1, 2010 から Baikonur Cosmodrome

Loading…

次のパス (今後24時間)

TLE

古いSource: Space-Track

元期: May 3, 2025, 13:28 UTC

1 41700U 10007S   25123.56113341  .00000170  00000-0  16834-2 0  9999
2 41700  64.5184  64.8316 5701930 336.9489   5.2740  4.13348308161513

AllMySatでSL-12 DEBをリアルタイム追跡

Download on the App Store